Location: Unspecified
(22.6800°N, 112.2000°E)
Time: 12:24:41
(UTC+08:00)

Tiros 1 despin weight - Visible Passes

Search period start: 01 August 2021 00:00
Search period end: 11 August 2021 00:00
Orbit: 593 x 642 km, 48.2° (Epoch: 31 July)

Date Brightness Start Highest point End Pass type
(mag) Time Alt. Az. Time Alt. Az. Time Alt. Az.
01 Aug ? 20:59:40 10° NW 21:04:17 80° NE 21:04:19 80° NE visible
02 Aug ? 19:35:12 10° NNW 19:38:51 22° NE 19:42:29 10° E visible
02 Aug ? 21:16:08 10° WNW 21:20:04 40° WSW 21:20:04 40° WSW visible
03 Aug ? 19:50:49 10° NNW 19:55:18 47° NE 19:58:50 15° ESE visible
03 Aug ? 21:33:32 10° W 21:35:53 17° WSW 21:35:53 17° WSW visible
04 Aug ? 20:06:55 10° NW 20:11:33 72° SW 20:14:45 19° SE visible
05 Aug ? 20:23:41 10° WNW 20:27:41 29° SW 20:30:46 14° S visible
06 Aug ? 20:42:01 10° WSW 20:43:42 12° SW 20:45:24 10° SSW visible
08 Aug ? 19:31:25 10° W 19:34:52 21° SW 19:38:17 10° S visible
